sat.trackr.live / text

‹ back to catalog

EUTELSAT 5 WEST B (EGN*)

NORAD 44624 · 2019-067A

PAYLOAD ACTIVE UNKNOWN

§ Identity

Operator
Country
EUTE
Launch date
2019-10-09
Launch site
TYMSC
Launch vehicle
Mass (kg)
RCS (m²)

Purposes: comms, nav

External: N2YO · Heavens-Above · Gunter

§ Orbital elements

Epoch: 2026-09-20T01:30:02.246400Z

Period
1,436.08 min
Inclination
0.0703°
Eccentricity
0.0003186
Mean motion
1.00272775 rev/d
Perigee alt
35,772.9 km
Apogee alt
35,799.8 km
Semi-major
42,164.5 km
B*
0.0000e+0
RAAN
333.5633°
Arg perigee
201.1703°
Mean anomaly
201.7483°
Rev number
2,537

§ Raw data

EUTELSAT 5 WEST B (EGN*)1 44624U 19067A   26263.06252600 -.00000046  00000+0  00000+0 0  99922 44624   0.0703 333.5633 0003186 201.1703 201.7483  1.00272775 25373

JSON: /api/v1/satellites/44624 · /tle

For live sub-satellite position, see the globe view (requires WebGL).

§ Visibility from observer

Set your observer location to see the next 7 days of passes ≥ 10°. The values pass through the URL so the page stays shareable.

No JS? Fill the form by hand. The geolocation button needs JavaScript.